Theta_e
355 353 362 363 363 363 363 362 362 362 362 362 361 359 357 356 356 358 358 357 357 358 357 356 354 352 352 352 352 353 353 353
352 354 359 362 362 362 363 362 361 361 361 360 359 357 356 356 358 358 358 358 359 358 357 356 354 353 352 353 353 353 352 352
351 355 356 361 361 361 361 361 360 360 360 360 359 358 356 356 357 357 357 357 357 355 354 353 353 353 352 352 352 354 353 350
352 350 351 353 358 360 360 360 360 359 359 359 358 357 356 355 355 355 355 355 354 352 351 351 352 353 353 354 354 354 353 350
352 348 347 348 348 351 355 359 359 359 358 358 357 357 356 355 354 353 354 354 352 351 350 350 351 352 354 353 353 352 353 351
349 348 347 345 345 344 346 355 357 357 357 357 355 355 352 348 348 347 350 351 348 349 350 351 352 354 354 353 352 352 353 345
348 347 346 346 346 343 342 348 347 349 348 349 350 350 348 349 349 348 350 347 349 351 353 354 354 354 353 352 347 352 349 346
350 347 346 351 351 345 344 343 345 347 348 351 354 352 352 347 346 342 347 348 350 352 349 350 351 352 351 350 348 347 347 346
350 348 349 351 355 354 348 344 346 343 346 348 349 353 353 347 349 348 343 344 347 349 350 351 348 352 353 351 350 349 350 351
349 349 349 354 356 361 357 349 348 348 347 349 351 352 349 344 348 345 346 342 342 347 350 350 351 352 351 351 351 351 350 352
354 353 352 353 361 355 359 361 353 353 353 351 351 352 351 346 351 345 345 341 342 347 351 352 357 356 355 353 353 354 352 351
353 355 358 358 357 360 357 357 356 354 353 352 352 356 351 352 352 350 346 344 350 356 356 358 357 356 353 351 352 351 351 349
354 358 358 354 355 357 360 358 355 354 352 352 351 352 351 350 354 356 354 355 357 357 357 355 354 351 350 349 347 348 348 350
355 357 358 358 355 357 362 358 358 360 353 349 347 348 351 352 354 356 354 355 358 355 352 349 345 346 344 345 344 347 347 345
355 358 358 356 356 360 357 361 353 353 347 346 351 354 357 356 356 358 358 359 354 349 345 346 347 348 347 346 342 341 347 347
353 355 355 353 356 357 353 350 347 341 344 351 358 360 359 359 358 360 353 351 347 345 347 348 346 346 343 344 339 336 337 347
350 353 352 353 359 359 353 351 345 345 351 353 355 356 353 351 351 351 352 349 349 346 345 344 343 339 339 339 329 327 322 327
349 350 351 356 358 358 355 360 361 357 354 351 351 350 347 348 349 349 347 344 345 345 339 337 335 333 325 328 333 320 314 312
348 350 351 353 356 355 363 360 358 350 347 360 346 342 340 343 342 342 341 339 337 333 333 329 328 329 328 321 321 322 325 322
Wind_Speed
19 19 19 17 17 17 18 18 17 17 16 15 14 14 13 12 11 10 9 8 7 6 5 4 2 1 2 4 5 7 9 10
19 19 18 16 16 17 18 18 16 17 16 15 14 14 13 12 12 11 9 8 7 5 3 2 2 4 5 6 8 9 10 12
18 19 19 16 16 16 16 16 16 16 16 15 14 12 12 11 11 10 8 7 5 3 2 2 4 7 8 9 11 11 11 13
17 18 17 16 15 14 15 15 16 15 15 14 13 13 11 11 10 8 7 6 4 2 2 4 6 8 9 11 12 12 12 14
17 17 17 15 15 15 14 14 15 15 14 14 13 12 12 10 9 8 7 7 4 3 4 6 7 9 10 13 14 14 13 15
15 17 17 19 17 16 17 13 14 15 14 13 12 10 11 10 9 11 9 9 5 5 6 8 9 11 14 16 21 16 14 9
19 19 18 17 17 16 13 15 13 12 11 10 10 10 10 5 3 5 7 9 10 10 13 13 13 15 14 10 8 15 9 10
21 16 17 14 15 17 15 11 8 8 7 7 9 8 2 5 6 7 6 8 8 12 7 9 8 9 12 9 9 9 11 11
21 20 19 17 11 13 12 11 11 9 8 7 8 7 5 5 4 3 3 3 6 2 3 4 5 5 7 10 10 10 12 11
19 18 18 17 14 9 10 9 9 8 7 8 8 8 7 5 3 3 1 4 3 2 2 4 6 6 7 9 9 12 12 11
16 15 17 18 11 13 9 9 7 6 7 7 7 8 5 5 4 3 5 4 1 2 2 5 6 6 8 10 10 12 13 12
13 15 15 17 15 12 11 10 7 8 9 7 6 6 5 5 4 4 3 3 2 1 5 4 6 4 4 3 8 11 10 15
12 12 14 13 12 13 11 8 8 8 6 5 5 7 7 6 5 5 5 2 1 2 3 4 4 5 6 7 4 7 9 11
14 15 15 16 16 13 13 10 8 9 5 5 5 5 6 7 7 5 3 3 4 2 3 3 3 5 6 7 7 8 9 9
16 16 16 12 12 10 9 6 7 8 6 6 4 4 7 6 7 6 3 2 3 2 5 5 6 5 6 8 8 8 9 8
15 17 17 16 16 11 10 8 8 9 8 6 3 5 4 2 2 1 2 1 5 5 6 6 7 5 5 7 8 10 10 6
15 18 17 16 15 11 9 7 8 8 8 7 6 6 7 9 7 5 6 3 5 5 7 6 7 6 6 8 7 8 6 6
21 21 18 16 14 12 12 7 6 9 6 7 7 7 5 4 6 5 7 7 4 3 6 7 8 10 6 7 9 6 6 6
21 19 20 17 15 12 11 11 11 9 9 3 7 8 7 8 8 8 8 8 7 6 7 7 7 5 7 8 5 5 3 4
Wind_Direction
148 148 131 133 135 135 131 129 126 126 130 128 129 128 132 130 125 125 127 129 124 120 120 131 148 191 257 282 300 294 295 296
154 134 140 134 136 135 133 130 130 130 128 126 127 132 132 133 132 133 135 136 132 131 139 172 238 268 282 289 286 284 287 292
147 133 137 134 133 133 132 130 132 130 129 128 129 131 133 136 136 137 137 136 138 146 195 286 302 299 301 296 289 289 289 290
142 142 148 148 134 127 131 132 132 130 128 127 132 134 136 138 141 143 146 154 167 203 287 304 301 297 293 286 282 278 279 285
147 141 150 147 153 157 146 130 129 129 132 133 136 139 143 143 147 158 172 172 181 222 262 272 279 283 279 274 268 263 263 269
161 151 160 156 157 156 141 135 130 135 136 135 143 152 164 169 175 166 119 144 181 225 248 252 257 260 261 264 254 246 248 262
169 166 159 158 158 146 148 153 156 153 166 174 173 174 217 128 113 37 133 172 200 215 231 230 235 242 251 265 331 218 239 309
169 170 158 151 173 155 137 169 156 168 168 165 154 190 117 174 167 210 171 191 207 200 253 201 221 228 3 313 320 318 320 312
162 170 159 145 168 168 142 178 165 178 165 165 167 182 139 219 164 281 278 19 201 123 5 280 306 343 291 330 302 307 322 328
161 164 166 155 172 154 157 163 170 152 175 153 154 184 181 220 190 220 89 280 352 328 320 334 295 352 310 294 334 342 322 319
158 156 155 160 167 158 173 136 145 158 138 172 172 165 193 216 153 205 201 224 221 277 323 270 8 346 347 350 338 342 326 307
150 166 157 161 163 157 151 152 167 168 165 184 159 145 192 217 163 281 210 218 141 272 267 325 315 309 263 46 347 318 327 325
135 146 154 148 162 174 145 169 187 149 190 171 154 157 183 184 179 209 197 105 69 275 278 288 303 344 332 352 33 322 315 301
139 159 171 159 167 174 157 170 180 130 186 167 169 170 181 180 170 219 192 171 224 260 330 340 354 329 325 347 327 339 326 320
151 158 165 148 160 191 152 170 156 176 163 161 158 152 183 175 183 212 186 218 262 281 335 349 309 325 327 356 360 332 301 284
161 160 158 163 168 182 159 185 157 169 165 144 133 171 154 138 127 110 98 29 352 330 352 327 315 347 16 13 355 350 310 110
162 159 165 162 168 161 175 178 177 171 125 171 143 99 56 53 38 56 4 5 359 342 37 11 358 354 31 49 13 323 343 326
167 164 160 156 161 174 173 134 98 104 125 168 145 112 77 78 61 50 46 36 32 337 59 34 16 27 22 45 29 6 337 3
165 161 157 152 161 168 165 151 156 169 176 163 88 89 82 76 77 77 75 70 54 54 41 45 34 17 18 36 8 17 18 13